sat.trackr.live / text

‹ back to catalog

TYVAK-0173

NORAD 48892 · 2021-059P

PAYLOAD ACTIVE UNKNOWN

§ Identity

Operator
Country
AUS
Launch date
2021-06-30
Launch site
AFETR
Launch vehicle
Mass (kg)
RCS (m²)

External: N2YO · Heavens-Above · Gunter

§ Orbital elements

Epoch: 2026-09-12T02:16:24.149280Z

Period
97.16 min
Inclination
95.9999°
Eccentricity
0.0011014
Mean motion
14.82109743 rev/d
Perigee alt
615.0 km
Apogee alt
630.4 km
Semi-major
7,000.8 km
B*
1.3753e-4
RAAN
309.8237°
Arg perigee
94.2134°
Mean anomaly
266.0343°
Rev number
28,111

§ Raw data

TYVAK-01731 48892U 21059P   26255.09472395  .00001063  00000+0  13753-3 0  99982 48892  95.9999 309.8237 0011014  94.2134 266.0343 14.82109743281111

JSON: /api/v1/satellites/48892 · /tle

For live sub-satellite position, see the globe view (requires WebGL).

§ Visibility from observer

Set your observer location to see the next 7 days of passes ≥ 10°. The values pass through the URL so the page stays shareable.

No JS? Fill the form by hand. The geolocation button needs JavaScript.

§ Radio — SatNOGS DB

ModeDescriptionDownlinkUplink
FSK Downlink 401.200 MHz

1 transmitter · refreshed weekly from db.satnogs.org